Change the Weather History Date:

Sunday, September 22, 2013

  Actual Average Record
Temperature  
Mean Temperature 60 °F 57 °F  
Max Temperature 64 °F 64 °F 94 °F (1919)
Min Temperature 55 °F 49 °F 38 °F (1918)
Degree Days  
Heating Degree Days 5 8  
Month to date heating degree days 63 156  
Since 1 July heating degree days 230 535  
Cooling Degree Days 0 0  
Month to date cooling degree days 1 0  
Year to date cooling degree days 13 1  
Growing Degree Days 10 (Base 50)    
Moisture  
Dew Point 56 °F    
Average Humidity 92    
Maximum Humidity 100    
Minimum Humidity 72    
Precipitation  
Precipitation 0.11 in 0.07 in 0.68 in (1948)
Month to date precipitation 1.86 1.00  
Year to date precipitation 19.79 38.24  
Sea Level Pressure  
Sea Level Pressure 29.86 in    
Wind  
Wind Speed 11 mph (South)    
Max Wind Speed 24 mph    
Max Gust Speed 37 mph    
Visibility 10 miles    
Events      
T = Trace of Precipitation, MM = Missing Value Source: NWS Daily Summary

Daily Weather History Graph

Daily Weather History Graph

Search for Another Location

Airport or City:

Trip Planner

Search our weather history database for the weather conditions in past years. The results will help you decide how hot, cold, wet, or windy it might be!

Date:

Astronomy

Sep. 22, 2013 Rise Set
Actual Time 7:04 AM PDT 7:13 PM PDT
Civil Twilight 6:36 AM PDT 7:42 PM PDT
Nautical Twilight 6:02 AM PDT 8:15 PM PDT
Astronomical Twilight 5:28 AM PDT 8:49 PM PDT
Moon 9:00 PM PDT (9/22) 10:37 AM PDT (9/22)
Length of Visible Light 13h 06m
Length of Day
12h 09m
Waning Gibbous, 88% of the Moon is Illuminated
Sep 22
Waning Gibbous
Sep 26
Last Quarter
Oct 4
New
Oct 11
First Quarter
Oct 18
Full

Hourly Weather History & Observations

Time (PDT) Temp. Dew Point Humidity Pressure Visibility Wind Dir Wind Speed Gust Speed Precip Events Conditions
12:15 AM 55.4 °F 55.4 °F 100% 29.87 in 10.0 mi SSE 6.9 mph - N/A   Overcast
12:35 AM 55.4 °F 55.4 °F 100% 29.88 in 10.0 mi South 4.6 mph - N/A   Overcast
12:55 AM 55.4 °F 55.4 °F 100% 29.88 in 10.0 mi South 6.9 mph - N/A   Scattered Clouds
1:15 AM 57.2 °F 55.4 °F 94% 29.88 in 10.0 mi South 6.9 mph - N/A   Scattered Clouds
1:35 AM 57.2 °F 55.4 °F 94% 29.88 in 10.0 mi South 6.9 mph - N/A   Scattered Clouds
1:55 AM 55.4 °F 55.4 °F 100% 29.88 in 10.0 mi SSE 8.1 mph - N/A   Scattered Clouds
2:15 AM 55.4 °F 55.4 °F 100% 29.88 in 10.0 mi SSE 6.9 mph - N/A   Mostly Cloudy
2:35 AM 55.4 °F 55.4 °F 100% 29.88 in 10.0 mi SSE 5.8 mph - N/A   Partly Cloudy
2:55 AM 55.4 °F 55.4 °F 100% 29.88 in 10.0 mi SSE 6.9 mph - N/A   Mostly Cloudy
3:15 AM 55.4 °F 55.4 °F 100% 29.88 in 10.0 mi SSE 8.1 mph - N/A   Overcast
3:35 AM 55.4 °F 55.4 °F 100% 29.88 in 10.0 mi SSE 6.9 mph - N/A   Overcast
3:55 AM 55.4 °F 55.4 °F 100% 29.88 in 10.0 mi SSE 6.9 mph - N/A   Mostly Cloudy
4:15 AM 55.4 °F 55.4 °F 100% 29.87 in 10.0 mi SSE 6.9 mph - N/A   Overcast
4:35 AM 55.4 °F 53.6 °F 94% 29.87 in 10.0 mi SSE 9.2 mph - N/A   Mostly Cloudy
4:55 AM 55.4 °F 53.6 °F 94% 29.87 in 10.0 mi SSE 9.2 mph - N/A   Mostly Cloudy
5:15 AM 55.4 °F 53.6 °F 94% 29.87 in 10.0 mi SSE 10.4 mph - N/A   Overcast
5:35 AM 55.4 °F 53.6 °F 94% 29.86 in 10.0 mi SSE 9.2 mph - N/A   Overcast
5:55 AM 55.4 °F 53.6 °F 94% 29.86 in 10.0 mi SSE 8.1 mph - N/A   Overcast
6:15 AM 55.4 °F 53.6 °F 94% 29.87 in 10.0 mi SSE 9.2 mph - N/A   Overcast
6:35 AM 55.4 °F 53.6 °F 94% 29.87 in 10.0 mi SSE 9.2 mph - N/A   Overcast
6:55 AM 55.4 °F 53.6 °F 94% 29.87 in 10.0 mi SSE 9.2 mph - N/A   Overcast
7:15 AM 55.4 °F 53.6 °F 94% 29.86 in 10.0 mi SSE 9.2 mph - N/A   Overcast
7:35 AM 55.4 °F 53.6 °F 94% 29.86 in 10.0 mi SSE 9.2 mph - N/A   Overcast
7:55 AM 55.4 °F 55.4 °F 100% 29.85 in 10.0 mi SSE 6.9 mph - N/A   Overcast
8:15 AM 57.2 °F 55.4 °F 94% 29.86 in 10.0 mi SSE 6.9 mph - N/A   Overcast
8:35 AM 57.2 °F 55.4 °F 94% 29.86 in 10.0 mi SSE 8.1 mph - N/A   Overcast
8:55 AM 57.2 °F 55.4 °F 94% 29.86 in 10.0 mi SSE 8.1 mph - N/A   Overcast
9:15 AM 57.2 °F 55.4 °F 94% 29.85 in 10.0 mi SSE 9.2 mph - N/A   Overcast
9:35 AM 57.2 °F 55.4 °F 94% 29.85 in 10.0 mi SSE 9.2 mph - N/A   Overcast
9:55 AM 59.0 °F 55.4 °F 88% 29.85 in 10.0 mi South 10.4 mph - N/A   Overcast
10:15 AM 60.8 °F 55.4 °F 82% 29.84 in 10.0 mi South 12.7 mph - N/A   Overcast
10:35 AM 60.8 °F 55.4 °F 82% 29.84 in 10.0 mi SSE 11.5 mph - N/A   Overcast
10:55 AM 60.8 °F 55.4 °F 82% 29.84 in 10.0 mi South 10.4 mph 18.4 mph N/A   Overcast
11:15 AM 62.6 °F 55.4 °F 77% 29.83 in 10.0 mi South 12.7 mph 16.1 mph N/A   Overcast
11:35 AM 62.6 °F 55.4 °F 77% 29.83 in 10.0 mi South 10.4 mph 18.4 mph N/A   Overcast
11:55 AM 62.6 °F 53.6 °F 72% 29.82 in 10.0 mi South 13.8 mph 28.8 mph N/A   Overcast
12:15 PM 62.6 °F 53.6 °F 72% 29.82 in 10.0 mi SSW 16.1 mph 25.3 mph N/A   Overcast
12:35 PM 64.4 °F 53.6 °F 68% 29.81 in 10.0 mi SSW 18.4 mph 31.1 mph N/A   Overcast
12:55 PM 62.6 °F 55.4 °F 77% 29.80 in 10.0 mi SSW 24.2 mph 33.4 mph N/A   Overcast
1:15 PM 60.8 °F 57.2 °F 88% 29.80 in 9.0 mi South 17.3 mph 29.9 mph N/A   Overcast
1:35 PM 62.6 °F 55.4 °F 77% 29.79 in 10.0 mi SSW 17.3 mph 33.4 mph N/A   Overcast
1:55 PM 62.6 °F 57.2 °F 82% 29.78 in 9.0 mi South 20.7 mph 36.8 mph N/A   Overcast
2:15 PM 62.6 °F 57.2 °F 82% 29.78 in 7.0 mi SSW 21.9 mph 44.9 mph 0.01 in   Overcast
2:35 PM 60.8 °F 59.0 °F 94% 29.77 in 7.0 mi SSW 23.0 mph 33.4 mph 0.04 in   Overcast
2:55 PM 60.8 °F 59.0 °F 94% 29.78 in 2.5 mi South 13.8 mph 27.6 mph 0.06 in   Overcast
3:15 PM 60.8 °F 59.0 °F 94% 29.79 in 2.5 mi South 18.4 mph 28.8 mph 0.01 in   Overcast
3:35 PM 60.8 °F 59.0 °F 94% 29.80 in 2.5 mi SSW 17.3 mph 26.5 mph 0.01 in   Overcast
3:55 PM 60.8 °F 59.0 °F 94% 29.81 in 10.0 mi SSW 18.4 mph 29.9 mph 0.01 in   Overcast
4:15 PM 60.8 °F 59.0 °F 94% 29.83 in 8.0 mi SSW 16.1 mph 24.2 mph N/A   Overcast
4:35 PM 60.8 °F 59.0 °F 94% 29.84 in 9.0 mi SSW 16.1 mph 26.5 mph N/A   Overcast
4:55 PM 60.8 °F 59.0 °F 94% 29.86 in 10.0 mi SSW 17.3 mph 27.6 mph 0.01 in   Overcast
5:15 PM 60.8 °F 59.0 °F 94% 29.86 in 10.0 mi SSW 15.0 mph 21.9 mph N/A   Overcast
5:35 PM 60.8 °F 59.0 °F 94% 29.87 in 10.0 mi SSW 13.8 mph 21.9 mph N/A   Overcast
5:55 PM 60.8 °F 57.2 °F 88% 29.88 in 10.0 mi SW 8.1 mph - N/A   Mostly Cloudy
6:15 PM 60.8 °F 59.0 °F 94% 29.88 in 10.0 mi SW 8.1 mph - N/A   Overcast
6:35 PM 60.8 °F 59.0 °F 94% 29.87 in 6.0 mi South 10.4 mph 16.1 mph 0.01 in   Overcast
6:55 PM 59.0 °F 59.0 °F 100% 29.87 in 9.0 mi WSW 8.1 mph - 0.03 in   Overcast
7:15 PM 60.8 °F 59.0 °F 94% 29.87 in 10.0 mi SSW 6.9 mph - N/A   Overcast
7:35 PM 60.8 °F 59.0 °F 94% 29.87 in 10.0 mi South 8.1 mph - N/A   Mostly Cloudy
7:55 PM 60.8 °F 59.0 °F 94% 29.87 in 10.0 mi SSW 12.7 mph 18.4 mph N/A   Mostly Cloudy
8:15 PM 60.8 °F 57.2 °F 88% 29.88 in 10.0 mi SSW 12.7 mph 20.7 mph N/A   Mostly Cloudy
8:35 PM 60.8 °F 57.2 °F 88% 29.89 in 10.0 mi SSW 12.7 mph - N/A   Partly Cloudy
8:55 PM 60.8 °F 57.2 °F 88% 29.90 in 10.0 mi SSW 12.7 mph 19.6 mph N/A   Mostly Cloudy
9:15 PM 59.0 °F 57.2 °F 94% 29.91 in 10.0 mi SSW 10.4 mph - N/A   Mostly Cloudy
9:35 PM 59.0 °F 57.2 °F 94% 29.91 in 10.0 mi SSW 11.5 mph 18.4 mph N/A   Overcast
9:55 PM 59.0 °F 57.2 °F 94% 29.91 in 10.0 mi SSW 11.5 mph 18.4 mph N/A   Mostly Cloudy
10:15 PM 59.0 °F 57.2 °F 94% 29.92 in 10.0 mi SSW 11.5 mph 17.3 mph N/A   Scattered Clouds
10:35 PM 59.0 °F 57.2 °F 94% 29.93 in 10.0 mi SSW 11.5 mph - N/A   Mostly Cloudy
10:55 PM 59.0 °F 57.2 °F 94% 29.93 in 10.0 mi SSW 6.9 mph - N/A   Overcast
11:15 PM 57.2 °F 57.2 °F 100% 29.94 in 10.0 mi SSW 8.1 mph - N/A   Overcast
11:35 PM 57.2 °F 57.2 °F 100% 29.94 in 10.0 mi SSW 9.2 mph - N/A   Scattered Clouds
11:55 PM 59.0 °F 57.2 °F 94% 29.95 in 10.0 mi SSW 8.1 mph - N/A   Scattered Clouds